Location: Unspecified
(0.0000°N, 0.0000°E)
Time: 18:03:16
(UTC+00:00)

COSMOS 2498 - Pass Details

Date: 23 May 2026
Orbit: 1476 x 1512 km, 82.4° (Epoch: 10 June)

Event Time Altitude Azimuth Distance (km) Brightness Sun altitude
Rises 03:16:27 0° 13° (NNE) 4,581 ? -37.1°
Reaches altitude 10° 03:19:34 10° 21° (NNE) 3,605 ? -36.4°
Maximum altitude 03:27:27 39° 87° (E) 2,089 ? -34.6°
Drops below altitude 10° 03:35:20 10° 152° (SSE) 3,635 ? -32.8°
Sets 03:38:28 0° 160° (SSE) 4,622 ? -32.1°
